When you browse on this site, cookies collect data to enhance your experience and personalize the content and advertising you see.
Visit our Privacy Policy to learn more. By continuing to use the site, you agree to this use of cookies and data.

Previsão horária em Bangor

Hoje, 3 Julho, Sexta-feira

Tempo Temperatura Precipitação Vento Pressão Humidade
00:00 +10°C° 0 mm 2 m/s 744 mmHg 93%
01:00 +10°C° 0 mm 3 m/s 744 mmHg 93%
02:00 +10°C° 0 mm 3 m/s 744 mmHg 94%
03:00 +10°C° 0 mm 4 m/s 744 mmHg 94%
04:00 +11°C° 0 mm 4 m/s 744 mmHg 92%
05:00 +10°C° 0 mm 5 m/s 744 mmHg 91%
06:00 +11°C° 0 mm 6 m/s 744 mmHg 90%
07:00 +11°C° 0 mm 7 m/s 744 mmHg 87%
08:00 +12°C° 0 mm 8 m/s 744 mmHg 84%
09:00 +13°C° 0 mm 8 m/s 744 mmHg 81%
10:00 +13°C° 0 mm 9 m/s 744 mmHg 82%
11:00 +13°C° 0 mm 9 m/s 744 mmHg 83%
12:00 +13°C° 0 mm 9 m/s 744 mmHg 83%
13:00 +13°C° 0.1 mm 9 m/s 743 mmHg 84%
14:00 +13°C° 0.1 mm 9 m/s 743 mmHg 84%
15:00 +13°C° 0.1 mm 10 m/s 743 mmHg 85%
16:00 +13°C° 0.3 mm 9 m/s 743 mmHg 88%
17:00 +13°C° 0.3 mm 8 m/s 743 mmHg 91%
18:00 +12°C° 0.3 mm 8 m/s 742 mmHg 93%
19:00 +13°C° 0.4 mm 8 m/s 742 mmHg 94%
20:00 +14°C° 0.4 mm 7 m/s 742 mmHg 95%
21:00 +14°C° 0.4 mm 7 m/s 742 mmHg 96%
22:00 +14°C° 0.4 mm 7 m/s 742 mmHg 96%
23:00 +14°C° 0.4 mm 6 m/s 741 mmHg 96%

Amanhã, 4 Julho, Sábado

Tempo Temperatura Precipitação Vento Pressão Humidade
00:00 +15°C° 0.4 mm 6 m/s 741 mmHg 96%
01:00 +15°C° 0.5 mm 6 m/s 741 mmHg 96%
02:00 +15°C° 0.5 mm 6 m/s 741 mmHg 97%
03:00 +15°C° 0.5 mm 6 m/s 740 mmHg 97%
04:00 +15°C° 0.3 mm 6 m/s 740 mmHg 97%
05:00 +15°C° 0.3 mm 6 m/s 740 mmHg 96%
06:00 +15°C° 0.3 mm 6 m/s 740 mmHg 96%
07:00 +15°C° 0.1 mm 7 m/s 740 mmHg 96%
08:00 +15°C° 0.1 mm 7 m/s 740 mmHg 95%
09:00 +15°C° 0.1 mm 7 m/s 740 mmHg 95%
10:00 +16°C° 0 mm 7 m/s 740 mmHg 93%
11:00 +16°C° 0 mm 8 m/s 740 mmHg 91%
12:00 +16°C° 0 mm 8 m/s 740 mmHg 89%
13:00 +16°C° 0.1 mm 8 m/s 740 mmHg 90%
14:00 +16°C° 0.1 mm 7 m/s 740 mmHg 91%
15:00 +16°C° 0.1 mm 7 m/s 740 mmHg 92%
16:00 +16°C° 0.1 mm 7 m/s 740 mmHg 92%
17:00 +16°C° 0.1 mm 8 m/s 740 mmHg 92%
18:00 +16°C° 0.1 mm 8 m/s 740 mmHg 92%
19:00 +15°C° 0 mm 8 m/s 740 mmHg 91%
20:00 +15°C° 0 mm 8 m/s 741 mmHg 91%
21:00 +15°C° 0 mm 8 m/s 741 mmHg 90%
22:00 +15°C° 0 mm 8 m/s 741 mmHg 90%
23:00 +15°C° 0 mm 8 m/s 741 mmHg 90%

Depois de amanhã, 5 Julho, Domingo

Tempo Temperatura Precipitação Vento Pressão Humidade
00:00 +15°C° 0 mm 8 m/s 740 mmHg 90%
01:00 +15°C° 0.1 mm 9 m/s 740 mmHg 90%
02:00 +16°C° 0.1 mm 10 m/s 739 mmHg 90%
03:00 +16°C° 0.1 mm 11 m/s 739 mmHg 90%
04:00 +16°C° 0.3 mm 10 m/s 739 mmHg 91%
05:00 +14°C° 0.3 mm 10 m/s 739 mmHg 92%
06:00 +14°C° 0.3 mm 10 m/s 739 mmHg 93%
07:00 +15°C° 0.1 mm 9 m/s 739 mmHg 90%
08:00 +15°C° 0.1 mm 9 m/s 739 mmHg 86%
09:00 +15°C° 0.1 mm 8 m/s 740 mmHg 83%
10:00 +15°C° 0 mm 8 m/s 740 mmHg 79%
11:00 +15°C° 0 mm 8 m/s 740 mmHg 76%
12:00 +13°C° 0 mm 8 m/s 740 mmHg 72%
13:00 +13°C° 0 mm 8 m/s 741 mmHg 72%
14:00 +13°C° 0 mm 9 m/s 741 mmHg 72%
15:00 +12°C° 0 mm 9 m/s 741 mmHg 71%
16:00 +12°C° 0.1 mm 9 m/s 741 mmHg 73%
17:00 +12°C° 0.1 mm 9 m/s 741 mmHg 74%
18:00 +12°C° 0.1 mm 10 m/s 741 mmHg 76%
19:00 +11°C° 0 mm 9 m/s 741 mmHg 76%
20:00 +11°C° 0 mm 9 m/s 741 mmHg 76%
21:00 +10°C° 0 mm 8 m/s 742 mmHg 77%
22:00 +10°C° 0 mm 8 m/s 742 mmHg 77%
23:00 +10°C° 0 mm 9 m/s 742 mmHg 77%

6 Julho, Segunda-feira

Tempo Temperatura Precipitação Vento Pressão Humidade
00:00 +10°C° 0 mm 9 m/s 742 mmHg 77%
01:00 +9°C° 0 mm 8 m/s 742 mmHg 79%
02:00 +9°C° 0 mm 8 m/s 743 mmHg 82%
03:00 +8°C° 0 mm 7 m/s 743 mmHg 84%
04:00 +9°C° 0 mm 7 m/s 744 mmHg 83%
05:00 +9°C° 0 mm 7 m/s 744 mmHg 83%
06:00 +10°C° 0 mm 6 m/s 745 mmHg 83%
07:00 +11°C° 0 mm 7 m/s 746 mmHg 79%
08:00 +11°C° 0 mm 7 m/s 746 mmHg 75%
09:00 +12°C° 0 mm 7 m/s 747 mmHg 71%
10:00 +14°C° 0 mm 7 m/s 747 mmHg 70%
11:00 +14°C° 0 mm 7 m/s 748 mmHg 69%
12:00 +15°C° 0 mm 7 m/s 748 mmHg 68%
13:00 +15°C° 0 mm 6 m/s 749 mmHg 68%
14:00 +15°C° 0 mm 6 m/s 749 mmHg 68%
15:00 +16°C° 0 mm 6 m/s 749 mmHg 68%
16:00 +15°C° 0 mm 5 m/s 749 mmHg 68%
17:00 +15°C° 0 mm 5 m/s 750 mmHg 69%
18:00 +14°C° 0 mm 5 m/s 750 mmHg 70%
19:00 +13°C° 0 mm 4 m/s 750 mmHg 75%
20:00 +11°C° 0 mm 3 m/s 750 mmHg 80%
21:00 +10°C° 0 mm 2 m/s 750 mmHg 85%
22:00 +9°C° 0 mm 2 m/s 750 mmHg 86%
23:00 +9°C° 0 mm 2 m/s 750 mmHg 86%

7 Julho, Terça-feira

Tempo Temperatura Precipitação Vento Pressão Humidade
00:00 +9°C° 0 mm 1 m/s 750 mmHg 87%
01:00 +9°C° 0 mm 1 m/s 750 mmHg 88%
02:00 +9°C° 0 mm 1 m/s 750 mmHg 89%
03:00 +9°C° 0 mm 1 m/s 750 mmHg 90%
04:00 +10°C° 0 mm 1 m/s 750 mmHg 89%
05:00 +11°C° 0 mm 1 m/s 750 mmHg 88%
06:00 +12°C° 0 mm 1 m/s 750 mmHg 87%
07:00 +13°C° 0 mm 1 m/s 750 mmHg 81%
08:00 +15°C° 0 mm 2 m/s 750 mmHg 75%
09:00 +16°C° 0 mm 3 m/s 750 mmHg 69%
10:00 +17°C° 0 mm 3 m/s 750 mmHg 68%
11:00 +17°C° 0 mm 4 m/s 750 mmHg 67%
12:00 +18°C° 0 mm 4 m/s 750 mmHg 65%
13:00 +18°C° 0 mm 4 m/s 750 mmHg 66%
14:00 +18°C° 0 mm 4 m/s 750 mmHg 66%
15:00 +18°C° 0 mm 4 m/s 750 mmHg 66%
16:00 +17°C° 0 mm 4 m/s 750 mmHg 69%
17:00 +17°C° 0 mm 4 m/s 750 mmHg 71%
18:00 +15°C° 0 mm 4 m/s 750 mmHg 73%
19:00 +14°C° 0 mm 3 m/s 750 mmHg 78%
20:00 +12°C° 0 mm 3 m/s 750 mmHg 83%
21:00 +12°C° 0 mm 2 m/s 750 mmHg 88%
22:00 +10°C° 0 mm 2 m/s 750 mmHg 88%
23:00 +10°C° 0 mm 2 m/s 750 mmHg 89%

8 Julho, Quarta-feira

Tempo Temperatura Precipitação Vento Pressão Humidade
00:00 +9°C° 0 mm 2 m/s 750 mmHg 89%
01:00 +9°C° 0 mm 2 m/s 750 mmHg 89%
02:00 +9°C° 0 mm 2 m/s 750 mmHg 89%
03:00 +9°C° 0 mm 2 m/s 750 mmHg 89%
04:00 +10°C° 0 mm 2 m/s 750 mmHg 89%
05:00 +12°C° 0 mm 2 m/s 750 mmHg 88%
06:00 +13°C° 0 mm 2 m/s 750 mmHg 88%
07:00 +14°C° 0 mm 2 m/s 750 mmHg 87%
08:00 +14°C° 0 mm 3 m/s 750 mmHg 86%
09:00 +16°C° 0 mm 3 m/s 750 mmHg 85%
10:00 +17°C° 0 mm 4 m/s 750 mmHg 84%
11:00 +18°C° 0 mm 4 m/s 750 mmHg 83%
12:00 +18°C° 0 mm 4 m/s 750 mmHg 82%
13:00 +17°C° 0 mm 5 m/s 750 mmHg 81%
14:00 +19°C° 0 mm 5 m/s 750 mmHg 80%
15:00 +19°C° 0 mm 5 m/s 749 mmHg 79%
16:00 +19°C° 0 mm 5 m/s 749 mmHg 81%
17:00 +17°C° 0 mm 5 m/s 749 mmHg 82%
18:00 +17°C° 0 mm 5 m/s 749 mmHg 83%
19:00 +16°C° 0 mm 5 m/s 749 mmHg 87%
20:00 +15°C° 0 mm 5 m/s 749 mmHg 90%
21:00 +14°C° 0 mm 4 m/s 749 mmHg 94%
22:00 +14°C° 0 mm 5 m/s 748 mmHg 93%
23:00 +14°C° 0 mm 5 m/s 748 mmHg 92%
Mostrar mais